Find Yaogan Weixing 28

NORAD ID: 41026 Int'l Des: 2015-064 Owner: ZZB Country: CN Constellation: yaogan operational
別名: YAOGAN 28 spacetrack, celestrak
LEOCIRCULARRETROGRADESSO

現在のビュー

3D地球を読み込み中...

About Yaogan Weixing 28

Yaogan Weixing 28 (NORAD 41026) is a yaogan constellation satellite launched Nov 8, 2015 by ZZB of CN. It operates in LEO, CIRCULAR, RETROGRADE, SSO orbit with a mass of 3000.00 kg.

次回通過

Passes for default location (London). Set your location on the main map for personalized predictions.

高度履歴

Loading altitude history...

軌道要素

1 41026U 15064A 26264.32864905 .00005173 00000-0 18892-3 0 9993
2 41026 97.3204 40.7859 0009718 202.7831 157.2979 15.28508331605367
Epoch: Sep 21, 2026 • Age: 4 hours

現在のステータス

高度 480.6 km
遠地点 / 近地点 N/A
速度 7.63 km/s
衛星直下点 31.77°N, 49.97°E
打ち上げ日 Nov 8, 2015
運用期間 10.8 years
タイプ military

技術仕様

分類 Payload
質量 3000.00 kg
形状 ? Box + 2 Pan
製造者 CAST
バスタイプ JB-11
フェーズステータス In Orbit
所有者/国 ZZB/CN

Most Searched